• Processing (Info)

  • MPEC 2001-P45 : 2000 EJ37

    The following Minor Planet Electronic Circular may be linked-to from your own Web pages, but must not otherwise be redistributed electronically.

    A form allowing access to any MPEC is at the bottom of this page.


    Read MPEC 2001-P44 Read MPEC 2001-P46


    M.P.E.C. 2001-P45                                Issued 2001 Aug. 15, 14:37 UT
    
         The Minor Planet Electronic Circulars contain information on unusual
             minor planets and routine data on comets.  They are published
       on behalf of Commission 20 of the International Astronomical Union by the
              Minor Planet Center, Smithsonian Astrophysical Observatory,
                              Cambridge, MA 02138, U.S.A.
    
                 Prepared using the Tamkin Foundation Computer Network
    
                                  MPC@CFA.HARVARD.EDU
              URL http://cfa-www.harvard.edu/iau/mpc.html  ISSN 1523-6714
    
                                       2000 EJ37
    
    Observations:
         K00E37J 1C2001 08 08.77536 03 41 10.75 +14 20 17.9                      413
         K00E37J 1C2001 08 08.77697 03 41 10.81 +14 20 18.0                      413
         K00E37J 1C2001 08 08.77856 03 41 10.90 +14 20 18.0                      413
         K00E37J 1C2001 08 09.74079 03 41 58.56 +14 19 29.8                      413
         K00E37J 1C2001 08 09.74239 03 41 58.61 +14 19 29.8                      413
         K00E37J 1C2001 08 09.74399 03 41 58.70 +14 19 29.7                      413
    
    Observer details:
    413 Siding Spring.  Observer R. H. McNaught.  1.0-m f/8 reflector + CCD.
    
    First and last observations above in comparison with prediction:
    Residuals in seconds of arc, reference and Delta-T
    010808 413  3.0-  0.0     010809 413  3.0-  0.1+    MPO  3929   +0.0043 day
    
    Orbital elements:
    2000 EJ37 = 2000 GW5
    Epoch 2001 Oct. 18.0 TT = JDT 2452200.5                 Spahr
    M  27.36728              (2000.0)            P               Q
    n   0.09709337     Peri.  110.46648     +0.42235898     +0.90631796
    a   4.6882381      Node   184.59196     -0.88354398     +0.40815607
    e   0.7043574      Incl.   10.19099     -0.20239299     +0.10952795
    P  10.15           H   13.6           G   0.15           U   3
    Residuals in seconds of arc
    000308 704  0.9+  1.2-    000406 704  0.4+  0.1+    000424 691  0.1-  0.1-
    000308 704  0.2+  1.0-    000406 704  0.3-  0.3-    000425 691  0.6-  0.2-
    000308 704  0.5+  0.7-    000407 699  0.6+  0.8+    000425 682  0.9-  0.1-
    000308 704  0.3-  0.3-    000407 699  0.5+  0.4+    000425 682  0.5-  0.0
    000310 704  0.2-  0.3+    000407 699  0.4+  0.8+    000425 691  0.7-  0.1-
    000310 704  0.1-  0.5+    000407 699  0.1+  0.2-    000425 682  0.2+  0.2+
    000310 704  0.3-  0.1+    000408 704  0.1-  0.4+    000425 691  0.8-  0.2-
    000310 704  0.8+  0.3-    000408 704  0.1+  0.2+    000426 699  0.2-  0.2+
    000310 704  0.2-  1.7+    000408 704  0.1-  0.2-    000426 699  0.0   0.1+
    000311 704  0.1+  0.7-    000408 704  0.2+  0.1+    000426 699  0.3-  0.1-
    000311 704  0.3+  0.2+    000408 704  0.6+  0.3-    000426 699  0.1-  0.2+
    000311 704  0.2+  0.1+    000412 854  1.8-  0.3+    000430 695  0.1-  0.1+
    000311 704  0.0   0.0     000412 854  1.4+  0.6-    000430 695  0.2-  0.1+
    000311 704  0.2-  0.1-    000412 854  1.4-  0.1-    000430 695  0.3-  0.3+
    000314 703  0.2+  0.4+    000420 046  0.7-  0.1+    000504 704  0.6+  0.4+
    000314 703  0.1-  0.0     000420 046  0.2+  0.3+    000504 704  0.4+  0.5+
    000314 703  0.3-  0.0     000420 046  0.0   0.2-    000504 704  0.8+  0.9+
    000314 703  0.6-  0.0     000420 046  0.4+  0.3-    000504 704  0.1-  0.2-
    000326 699  0.3-  0.2+    000420 046  0.1+  0.4+    000504 704  0.1-  0.1+
    000326 699  0.3+  0.2-    000420 046  0.1-  0.3-    000708 413  0.1-  0.2+
    000326 699  0.0   0.0     000420 046  0.4+  0.1-    000708 413  0.1-  0.2+
    000326 699  0.2-  0.3+    000420 046  0.1+  0.3-    000708 413  0.6-  0.8+
    000404 704  1.4+  0.2-    000421 658  0.0   0.2-    000810 413  0.0   0.1+
    000404 704  0.9-  0.5+    000421 658  1.5+  0.0     000810 413  0.0   0.0
    000404 704  0.2+  0.8-    000421 658  0.2-  0.1-    000810 413  0.1+  0.0
    000404 704  0.1+  0.4-    000421 557  0.1+  0.3+    000810 413  0.0   0.1-
    000404 704  0.1+  0.9-    000421 557  0.1-  0.1-    010808 413  0.0   0.0
    000405 704  0.2-  0.1-    000421 557  0.6-  0.1-    010808 413  0.3-  0.2+
    000405 704  0.0   0.1+    000424 739  1.0-  1.3-    010808 413  0.1-  0.2+
    000405 704  0.1+  0.6+    000424 739  1.9+  0.1-    010809 413  0.3+  0.1+
    000405 704  0.2+  0.2-    000424 739  2.1-  0.1-    010809 413  0.1-  0.2+
    000405 704  0.0   0.1-    000424 739  2.6+  0.1-    010809 413  0.1+  0.1+
    000406 704  0.2-  0.3+    000424 691  0.2-  0.1-
    000406 704  0.4-  0.3+    000424 691  0.2-  0.2-
    
    Ephemeris:
    2000 EJ37                a,e,i = 4.69, 0.70, 10                  q = 1.3860
    Date    TT    R. A. (2000) Decl.     Delta      r     Elong.  Phase     V
    2001 08 09    03 41.36   +14 20.1    2.667    2.685    80.1    21.8    18.9
    2001 08 19    03 48.65   +14 07.2    2.606    2.762    88.0    21.5    18.9
    2001 08 29    03 53.78   +13 44.8    2.543    2.839    96.4    20.7    18.9
    2001 09 08    03 56.61   +13 13.6    2.480    2.915   105.5    19.5    18.9
    2001 09 18    03 56.99   +12 34.2    2.423    2.991   115.1    17.7    18.8
    2001 09 28    03 54.90   +11 47.7    2.375    3.066   125.4    15.5    18.8
    2001 10 08    03 50.46   +10 56.0    2.342    3.140   136.2    12.7    18.7
    2001 10 18    03 43.99   +10 01.3    2.329    3.213   147.3     9.6    18.6
    2001 10 28    03 36.00   +09 06.8    2.342    3.286   158.4     6.4    18.5
    2001 11 07    03 27.23   +08 16.3    2.383    3.358   167.7     3.6    18.5
    2001 11 17    03 18.45   +07 33.0    2.455    3.429   168.3     3.3    18.6
    2001 11 27    03 10.41   +07 00.0    2.558    3.499   159.6     5.6    18.8
    2001 12 07    03 03.71   +06 38.9    2.689    3.569   148.9     8.2    19.1
    2001 12 17    02 58.73   +06 29.9    2.846    3.638   138.1    10.4    19.3
    2001 12 27    02 55.64   +06 32.5    3.024    3.706   127.5    12.2    19.6
    2002 01 06    02 54.47   +06 45.3    3.219    3.773   117.3    13.4    19.8
    2002 01 16    02 55.09   +07 06.5    3.426    3.839   107.6    14.1    20.0
    2002 01 26    02 57.35   +07 34.4    3.641    3.905    98.2    14.5    20.2
    2002 02 05    03 01.06   +08 07.3    3.859    3.970    89.2    14.4    20.3
    2002 02 15    03 06.00   +08 43.6    4.077    4.034    80.6    14.0    20.5
    2002 02 25    03 12.01   +09 21.9    4.290    4.097    72.2    13.3    20.6
    2002 03 07    03 18.90   +10 01.1    4.497    4.160    64.1    12.4    20.7
    
    Timothy B. Spahr             (C) Copyright 2001 MPC           M.P.E.C. 2001-P45
    

    Read MPEC 2001-P44 Read MPEC 2001-P46


    MPEC number:

    Enter an MPEC number in one of the following forms:

    • 1997-B01 (the full form)
    • J97B01 (the packed version of the full form)
    • B01 (the abbreviated form)